KD4KKF Weather Reports


Display with metric or nautical units.
time (UTC)temp
F
wind
direction
speed
MPH
gust
MPH
rain 1hr
in
rain 24hr
in
rain mn
in
humidity
%
barometer
mb
20260906073005 75 147 0.0 0.0 0.00 0.00 0.00 99 1011.4
20260906072500 75 72 0.0 0.0 0.00 0.00 0.00 99 1011.9
20260906071956 75 117 0.0 0.0 0.00 0.00 0.00 99 1011.7
20260906071452 75 175 0.0 0.0 0.00 0.00 0.00 99 1011.6
20260906070947 75 176 0.0 0.0 0.00 0.00 0.00 99 1011.4
20260906070442 75 176 0.0 0.0 0.00 0.00 0.00 99 1011.1
20260906065938 75 177 0.0 0.0 0.00 0.00 0.00 99 1011.4
20260906065432 75 176 0.0 0.0 0.00 0.00 0.00 99 1011.4
20260906064928 75 178 0.0 0.0 0.00 0.00 0.00 99 1011.4
20260906064424 75 175 0.0 0.0 0.00 0.00 0.00 99 1011.3
20260906063919 75 172 0.0 0.0 0.00 0.00 0.00 99 1011.4
20260906063414 75 172 0.0 0.0 0.00 0.00 0.00 99 1011.3
20260906062909 75 173 0.0 0.0 0.00 0.00 0.00 99 1011.3
20260906062408 75 173 0.0 0.0 0.00 0.00 0.00 99 1011.3
20260906061903 75 174 0.0 0.0 0.00 0.00 0.00 99 1011.2
20260906061400 75 171 0.0 0.0 0.00 0.00 0.00 99 1011.3
20260906060854 75 172 0.0 0.0 0.00 0.00 0.00 99 1011.1
20260906060352 75 177 0.0 0.0 0.00 0.00 0.00 99 1011.1
20260906055847 75 195 0.0 0.0 0.00 0.00 0.00 99 1011.4
20260906055343 75 195 0.0 0.0 0.00 0.00 0.00 99 1011.5
20260906054838 76 195 0.0 0.0 0.00 0.00 0.00 99 1011.3
20260906054333 76 195 0.0 0.0 0.00 0.00 0.00 99 1011.1
20260906053829 76 195 0.0 0.0 0.00 0.00 0.00 99 1011.3
20260906053325 76 195 0.0 0.0 0.00 0.00 0.00 99 1011.3
20260906052820 76 195 0.0 0.0 0.00 0.00 0.00 99 1011.5
20260906052316 76 195 0.0 0.0 0.00 0.00 0.00 99 1011.5
20260906051813 76 195 0.0 0.0 0.00 0.00 0.00 99 1011.6
20260906051313 76 195 0.0 0.0 0.00 0.00 0.00 99 1011.6
20260906050808 76 195 0.0 0.0 0.00 0.00 0.00 99 1011.5
20260906050303 76 195 0.0 0.0 0.00 0.00 0.00 99 1011.5
20260906045802 76 195 0.0 0.0 0.00 0.00 0.00 99 1011.4
20260906045256 76 195 0.0 0.0 0.00 0.00 0.00 99 1011.6
20260906044753 77 195 0.0 0.0 0.00 0.00 0.00 99 1011.4
20260906044247 77 195 0.0 0.0 0.00 0.00 0.00 99 1011.8
20260906043743 77 195 0.0 0.0 0.00 0.00 0.00 98 1011.9
20260906043239 77 195 0.0 0.0 0.00 0.00 0.00 98 1012.0
20260906042739 77 195 0.0 0.0 0.00 0.00 0.00 98 1012.1
20260906042238 77 195 0.0 0.0 0.00 0.00 0.00 98 1011.7
20260906041733 77 195 0.0 0.0 0.00 0.00 0.00 97 1011.7
20260906041228 77 195 0.0 0.0 0.00 0.00 0.00 97 1011.6
20260906040724 78 195 0.0 0.0 0.00 0.00 0.00 96 1011.7
20260906040219 78 195 0.0 0.0 0.00 0.00 0.00 96 1011.4
20260906035715 78 195 0.0 0.0 0.00 0.00 0.00 96 1011.7
20260906035211 78 195 0.0 0.0 0.00 0.00 0.00 96 1011.8
20260906034705 78 195 0.0 0.0 0.00 0.00 0.00 96 1012.0
20260906034200 78 195 0.0 0.0 0.00 0.00 0.00 96 1011.9
20260906033656 78 195 0.0 0.0 0.00 0.00 0.00 95 1011.8
20260906033156 78 195 0.0 0.0 0.00 0.00 0.00 95 1011.9
20260906032651 78 195 0.0 0.0 0.00 0.00 0.00 95 1011.7
20260906032146 78 195 0.0 0.0 0.00 0.00 0.00 95 1011.6
20260906031642 79 195 0.0 0.0 0.00 0.00 0.00 94 1011.8
20260906031137 79 195 0.0 0.0 0.00 0.00 0.00 94 1011.4
20260906030636 79 195 0.0 0.0 0.00 0.00 0.00 93 1011.6
20260906030132 79 194 0.0 0.0 0.00 0.00 0.00 92 1011.7
20260906025630 80 193 0.0 0.0 0.00 0.00 0.00 92 1011.3
20260906025130 80 194 0.0 0.0 0.00 0.00 0.00 92 1011.4
20260906024624 80 194 0.0 0.0 0.00 0.00 0.00 91 1011.3
20260906024119 80 246 0.0 0.0 0.00 0.00 0.00 90 1011.3
20260906023609 81 291 0.0 0.0 0.00 0.00 0.00 88 1011.4
20260906023104 81 182 0.0 0.0 0.00 0.00 0.00 89 1011.4
20260906022559 82 162 0.0 0.0 0.00 0.00 0.00 87 1011.5
20260906022055 82 151 0.0 0.0 0.00 0.00 0.00 85 1011.5
20260906021550 81 177 0.0 0.0 0.00 0.00 0.00 87 1011.6
20260906021048 82 176 0.0 0.0 0.00 0.00 0.00 87 1011.3
20260906020543 82 176 0.0 0.0 0.00 0.00 0.00 84 1011.0
20260906020043 83 149 1.0 1.0 0.00 0.00 0.00 84 1010.9
20260906015542 83 153 0.0 0.0 0.00 0.00 0.00 84 1011.0
20260906015042 83 251 0.0 0.0 0.00 0.00 0.00 84 1010.9
20260906014536 83 182 0.0 0.0 0.00 0.00 0.00 86 1010.6
20260906014032 82 245 0.0 0.0 0.00 0.00 0.00 87 1010.6
20260906013527 82 237 0.0 0.0 0.00 0.00 0.00 88 1010.5
20260906013023 82 237 0.0 0.0 0.00 0.00 0.00 87 1010.5
20260906012518 82 237 0.0 0.0 0.00 0.00 0.00 86 1010.6
20260906012017 83 235 0.0 0.0 0.00 0.00 0.00 86 1010.4
20260906011514 84 215 0.0 0.0 0.00 0.00 0.00 84 1010.5
20260906011013 84 187 0.0 0.0 0.00 0.00 0.00 84 1010.3
20260906010509 84 179 0.0 0.0 0.00 0.00 0.00 82 1010.3
20260906010006 83 205 0.0 0.0 0.00 0.00 0.00 85 1010.4
20260906005504 83 211 0.0 0.0 0.00 0.00 0.00 85 1010.2
20260906005003 84 208 0.0 0.0 0.00 0.00 0.00 85 1010.1
20260906004457 85 213 0.0 1.0 0.00 0.00 0.00 82 1010.1
20260906003952 85 196 1.0 1.0 0.00 0.00 0.00 81 1010.3
20260906003448 84 138 1.0 2.0 0.00 0.00 0.00 80 1009.9
20260906002943 83 231 0.0 0.0 0.00 0.00 0.00 85 1009.9
20260906002443 83 231 0.0 0.0 0.00 0.00 0.00 84 1009.8
20260906001938 84 231 0.0 0.0 0.00 0.00 0.00 83 1009.9
20260906001434 84 231 0.0 1.0 0.00 0.00 0.00 83 1010.0
20260906000928 85 232 1.0 1.0 0.00 0.00 0.00 82 1009.8
20260906000425 85 231 0.0 0.0 0.00 0.00 0.00 82 1010.1
20260905235918 85 232 1.0 1.0 0.00 0.00 0.00 81 1009.7
20260905235413 86 232 1.0 1.0 0.00 0.00 0.00 81 1009.4
20260905234908 86 232 1.0 1.0 0.00 0.00 0.00 80 1009.9
20260905234403 87 232 1.0 1.0 0.00 0.00 0.00 78 1009.9
20260905233858 88 232 1.0 1.0 0.00 0.00 0.00 76 1009.9
20260905233353 88 232 1.0 1.0 0.00 0.00 0.00 75 1010.0
20260905232852 89 232 1.0 1.0 0.00 0.00 0.00 73 1009.7
20260905232349 91 233 1.0 1.0 0.00 0.00 0.00 70 1009.8
20260905231844 92 177 0.0 0.0 0.00 0.00 0.00 66 1009.5
20260905231338 93 239 1.0 1.0 0.00 0.00 0.00 68 1009.5
20260905230835 94 243 2.0 2.0 0.00 0.00 0.00 65 1009.8
20260905230333 95 233 1.0 2.0 0.00 0.00 0.00 62 1009.5
20260905225832 96 212 1.0 1.0 0.00 0.00 0.00 59 1009.2
20260905225327 97 206 1.0 1.0 0.00 0.00 0.00 55 1009.5
20260905224821 98 61 1.0 2.0 0.00 0.00 0.00 50 1009.4
20260905224317 96 162 2.0 2.0 0.00 0.00 0.00 51 1009.4
20260905223812 97 243 2.0 2.0 0.00 0.00 0.00 55 1009.5
20260905223310 98 174 0.0 1.0 0.00 0.00 0.00 55 1009.2
20260905222805 96 316 2.0 2.0 0.00 0.00 0.00 52 1009.3
20260905222306 97 273 1.0 1.0 0.00 0.00 0.00 58 1009.5
20260905221800 99 225 3.0 3.0 0.00 0.00 0.00 49 1009.1
20260905221256 99 150 3.0 3.0 0.00 0.00 0.00 47 1009.5
20260905220752 99 193 0.0 1.0 0.00 0.00 0.00 51 1009.2
20260905220248 99 175 1.0 1.0 0.00 0.00 0.00 46 1009.5
20260905215747 99 36 3.0 3.0 0.00 0.00 0.00 47 1009.3
20260905215243 100 233 1.0 1.0 0.00 0.00 0.00 46 1009.4
20260905214739 99 238 1.0 1.0 0.00 0.00 0.00 48 1009.8
20260905214235 98 194 1.0 1.0 0.00 0.00 0.00 49 1009.7
20260905213730 96 219 0.0 0.0 0.00 0.00 0.00 51 1009.7
20260905213226 97 240 0.0 0.0 0.00 0.00 0.00 53 1009.9
20260905212721 97 226 1.0 1.0 0.00 0.00 0.00 52 1010.1
20260905212219 98 143 0.0 1.0 0.00 0.00 0.00 45 1010.0
20260905211714 100 151 2.0 2.0 0.00 0.00 0.00 43 1010.0
20260905211209 101 81 3.0 5.0 0.00 0.00 0.00 43 1010.1
20260905210706 101 37 3.0 5.0 0.00 0.00 0.00 43 1010.2
20260905210205 101 227 1.0 1.0 0.00 0.00 0.00 45 1010.1
20260905205704 100 77 2.0 2.0 0.00 0.00 0.00 46 1010.1
20260905205159 98 239 1.0 1.0 0.00 0.00 0.00 54 1010.2
20260905204658 98 117 0.0 1.0 0.00 0.00 0.00 48 1010.3
20260905204153 99 62 3.0 3.0 0.00 0.00 0.00 47 1010.2
20260905203648 100 98 2.0 2.0 0.00 0.00 0.00 47 1010.3
20260905203144 101 108 2.0 2.0 0.00 0.00 0.00 46 1010.3
20260905202639 101 61 3.0 3.0 0.00 0.00 0.00 46 1010.4
20260905202134 100 32 2.0 2.0 0.00 0.00 0.00 46 1010.4
20260905201630 100 152 1.0 1.0 0.00 0.00 0.00 46 1010.4
20260905201129 101 102 2.0 3.0 0.00 0.00 0.00 46 1010.5
20260905200625 101 167 2.0 3.0 0.00 0.00 0.00 44 1010.4
20260905200121 99 168 0.0 1.0 0.00 0.00 0.00 46 1010.6
20260905195619 99 78 2.0 2.0 0.00 0.00 0.00 46 1010.8
20260905195114 99 358 3.0 3.0 0.00 0.00 0.00 45 1010.6
20260905194608 99 340 3.0 3.0 0.00 0.00 0.00 48 1010.8
20260905194108 99 144 0.0 0.0 0.00 0.00 0.00 47 1011.1
20260905193602 99 41 6.0 8.0 0.00 0.00 0.00 47 1010.8
20260905193058 99 92 3.0 5.0 0.00 0.00 0.00 46 1010.8
20260905192554 99 68 3.0 3.0 0.00 0.00 0.00 47 1011.2
20260905192050 99 86 2.0 2.0 0.00 0.00 0.00 48 1011.1
20260905191548 98 78 1.0 2.0 0.00 0.00 0.00 50 1011.3
20260905191047 97 42 3.0 3.0 0.00 0.00 0.00 50 1011.4
20260905190546 99 48 7.0 8.0 0.00 0.00 0.00 49 1011.6
20260905190045 98 21 5.0 7.0 0.00 0.00 0.00 50 1011.7
20260905185545 99 311 4.0 6.0 0.00 0.00 0.00 50 1011.6
20260905185044 100 134 1.0 2.0 0.00 0.00 0.00 47 1011.6
20260905184538 100 222 3.0 3.0 0.00 0.00 0.00 48 1011.5
20260905184037 99 276 2.0 2.0 0.00 0.00 0.00 49 1011.9
20260905183532 100 59 6.0 7.0 0.00 0.00 0.00 48 1011.9
20260905183027 100 126 3.0 3.0 0.00 0.00 0.00 48 1011.8
20260905182526 99 14 2.0 3.0 0.00 0.00 0.00 49 1012.0
20260905182021 99 133 2.0 2.0 0.00 0.00 0.00 48 1012.1
20260905181515 98 137 2.0 2.0 0.00 0.00 0.00 50 1012.4
20260905181015 98 158 1.0 2.0 0.00 0.00 0.00 49 1012.4
20260905180510 98 207 2.0 2.0 0.00 0.00 0.00 51 1012.4
20260905180005 97 127 3.0 5.0 0.00 0.00 0.00 50 1012.3
20260905175504 98 37 3.0 5.0 0.00 0.00 0.00 50 1012.3
20260905175000 97 33 6.0 9.0 0.00 0.00 0.00 49 1012.4
20260905174455 97 64 1.0 2.0 0.00 0.00 0.00 51 1012.5
20260905173951 96 30 3.0 3.0 0.00 0.00 0.00 53 1012.5
20260905173448 96 80 1.0 1.0 0.00 0.00 0.00 55 1012.7
20260905172943 97 22 2.0 3.0 0.00 0.00 0.00 52 1012.8
20260905172441 98 74 4.0 5.0 0.00 0.00 0.00 51 1012.9
20260905171937 99 174 4.0 6.0 0.00 0.00 0.00 50 1012.7
20260905171433 98 236 1.0 3.0 0.00 0.00 0.00 52 1012.8
20260905170929 97 100 2.0 2.0 0.00 0.00 0.00 54 1013.1
20260905170425 98 172 3.0 5.0 0.00 0.00 0.00 51 1013.1
20260905165924 97 156 0.0 0.0 0.00 0.00 0.00 52 1013.2
20260905165419 98 45 5.0 6.0 0.00 0.00 0.00 52 1013.3
20260905164914 97 99 0.0 1.0 0.00 0.00 0.00 55 1013.1
20260905164409 95 70 1.0 2.0 0.00 0.00 0.00 56 1013.1
20260905163904 95 78 2.0 2.0 0.00 0.00 0.00 57 1013.1
20260905163401 96 74 5.0 7.0 0.00 0.00 0.00 56 1013.0
20260905162857 97 74 2.0 2.0 0.00 0.00 0.00 56 1013.3
20260905162355 96 67 2.0 3.0 0.00 0.00 0.00 57 1013.0
20260905161850 96 48 3.0 3.0 0.00 0.00 0.00 57 1013.7
20260905161349 97 79 2.0 2.0 0.00 0.00 0.00 57 1013.5
20260905160848 97 125 1.0 1.0 0.00 0.00 0.00 57 1013.5
20260905160342 96 35 2.0 2.0 0.00 0.00 0.00 60 1013.6
20260905155837 94 63 3.0 3.0 0.00 0.00 0.00 63 1013.7
20260905155336 92 264 3.0 3.0 0.00 0.00 0.00 66 1013.5
20260905154830 93 259 4.0 5.0 0.00 0.00 0.00 66 1013.6
20260905154326 92 233 3.0 3.0 0.00 0.00 0.00 67 1013.4
20260905153821 93 241 3.0 3.0 0.00 0.00 0.00 65 1013.6
20260905153318 94 229 0.0 0.0 0.00 0.00 0.00 70 1013.7
20260905152812 93 177 0.0 0.0 0.00 0.00 0.00 68 1013.8
20260905152311 92 239 4.0 5.0 0.00 0.00 0.00 70 1013.5
20260905151806 93 237 2.0 2.0 0.00 0.00 0.00 70 1013.9
20260905151301 92 73 2.0 3.0 0.00 0.00 0.00 71 1013.8
20260905150756 92 192 0.0 0.0 0.00 0.00 0.00 69 1013.6
20260905150256 91 189 2.0 2.0 0.00 0.00 0.00 73 1013.6
20260905145753 91 164 1.0 1.0 0.00 0.00 0.00 73 1013.7
20260905145248 91 11 1.0 2.0 0.00 0.00 0.00 72 1013.6
20260905144746 90 89 1.0 1.0 0.00 0.00 0.00 74 1013.8
20260905144242 92 104 1.0 1.0 0.00 0.00 0.00 71 1013.6
20260905143736 89 113 0.0 1.0 0.00 0.00 0.00 76 1013.8
20260905143235 89 74 1.0 2.0 0.00 0.00 0.00 77 1013.9
20260905142733 89 26 2.0 2.0 0.00 0.00 0.00 77 1013.6
20260905142228 88 65 0.0 0.0 0.00 0.00 0.00 78 1013.6
20260905141724 88 68 0.0 0.0 0.00 0.00 0.00 79 1013.9
20260905141219 87 127 0.0 0.0 0.00 0.00 0.00 80 1014.1
20260905140715 87 47 0.0 0.0 0.00 0.00 0.00 81 1013.9
20260905140209 86 107 0.0 0.0 0.00 0.00 0.00 82 1013.9
20260905135704 86 98 0.0 0.0 0.00 0.00 0.00 84 1013.9
20260905135200 85 103 0.0 0.0 0.00 0.00 0.00 84 1014.1
20260905134659 85 94 0.0 0.0 0.00 0.00 0.00 85 1013.9
20260905134158 84 134 0.0 0.0 0.00 0.00 0.00 86 1013.8
20260905133653 83 105 0.0 0.0 0.00 0.00 0.00 88 1013.9
20260905133148 83 115 0.0 0.0 0.00 0.00 0.00 88 1013.9
20260905132647 83 109 0.0 0.0 0.00 0.00 0.00 88 1013.9
20260905132143 82 110 0.0 0.0 0.00 0.00 0.00 89 1014.1
20260905131637 82 110 0.0 0.0 0.00 0.00 0.00 90 1014.0
20260905131132 81 111 0.0 0.0 0.00 0.00 0.00 90 1013.9
20260905130627 80 110 0.0 0.0 0.00 0.00 0.00 91 1014.0
20260905130126 79 114 0.0 0.0 0.00 0.00 0.00 93 1014.0
20260905125621 78 123 0.0 0.0 0.00 0.00 0.00 94 1014.0
20260905125117 78 134 0.0 0.0 0.00 0.00 0.00 95 1014.1
20260905124613 76 135 0.0 0.0 0.00 0.00 0.00 99 1014.1
20260905124109 75 136 0.0 0.0 0.00 0.00 0.00 99 1014.2
20260905123603 74 136 0.0 0.0 0.00 0.00 0.00 99 1014.3
20260905123101 73 136 0.0 0.0 0.00 0.00 0.00 99 1014.2
20260905122600 73 136 0.0 0.0 0.00 0.00 0.00 99 1014.1
20260905122055 72 141 0.0 0.0 0.00 0.00 0.00 99 1014.0
20260905121550 72 141 0.0 0.0 0.00 0.00 0.00 99 1013.8
20260905121045 72 142 0.0 0.0 0.00 0.00 0.00 99 1013.9
20260905120544 72 142 0.0 0.0 0.00 0.00 0.00 99 1013.9
20260905120040 71 142 0.0 0.0 0.00 0.00 0.00 99 1013.6
20260905115538 71 142 0.0 0.0 0.00 0.00 0.00 99 1013.7
20260905115033 71 141 0.0 0.0 0.00 0.00 0.00 99 1013.8
20260905114533 71 141 0.0 0.0 0.00 0.00 0.00 99 1013.5
20260905114032 71 142 0.0 0.0 0.00 0.00 0.00 99 1013.7
20260905113527 71 143 0.0 0.0 0.00 0.00 0.00 99 1013.7
20260905113022 71 111 0.0 0.0 0.00 0.00 0.00 99 1013.3
20260905112517 71 145 0.0 0.0 0.00 0.00 0.00 99 1013.3
20260905112013 71 146 0.0 0.0 0.00 0.00 0.00 99 1013.2
20260905111507 71 145 0.0 0.0 0.00 0.00 0.00 99 1013.3
20260905111001 71 145 0.0 0.0 0.00 0.00 0.00 99 1013.0
20260905110500 71 145 0.0 0.0 0.00 0.00 0.00 99 1013.1
20260905105954 71 145 0.0 0.0 0.00 0.00 0.00 99 1013.1
20260905105449 72 145 0.0 0.0 0.00 0.00 0.00 99 1013.0
20260905104948 72 145 0.0 0.0 0.00 0.00 0.00 99 1013.0
20260905104444 72 145 0.0 0.0 0.00 0.00 0.00 99 1013.2
20260905103939 72 145 0.0 0.0 0.00 0.00 0.00 99 1013.0
20260905103435 72 145 0.0 0.0 0.00 0.00 0.00 99 1013.0
20260905102931 72 145 0.0 0.0 0.00 0.00 0.00 99 1013.1
20260905102427 72 145 0.0 0.0 0.00 0.00 0.00 99 1013.1
20260905101922 72 144 0.0 0.0 0.00 0.00 0.00 99 1013.2
20260905101420 72 144 0.0 0.0 0.00 0.00 0.00 99 1012.9
20260905100915 72 144 0.0 0.0 0.00 0.00 0.00 99 1012.7
20260905100411 72 146 0.0 0.0 0.00 0.00 0.00 99 1012.9
20260905095909 72 146 0.0 0.0 0.00 0.00 0.00 99 1013.1
20260905095358 72 146 0.0 0.0 0.00 0.00 0.00 99 1013.0
20260905094853 72 146 0.0 0.0 0.00 0.00 0.00 99 1012.9
20260905094349 72 145 0.0 0.0 0.00 0.00 0.00 99 1012.8
20260905093847 72 130 0.0 0.0 0.00 0.00 0.00 99 1012.8
20260905093343 72 158 0.0 0.0 0.00 0.00 0.00 99 1012.7
20260905092839 72 159 0.0 0.0 0.00 0.00 0.00 99 1013.0
20260905092339 72 159 0.0 0.0 0.00 0.00 0.00 99 1012.8
20260905091833 72 159 0.0 0.0 0.00 0.00 0.00 99 1012.7
20260905091328 73 159 0.0 0.0 0.00 0.00 0.00 99 1012.9
20260905090826 73 159 0.0 0.0 0.00 0.00 0.00 99 1012.7
20260905090322 73 159 0.0 0.0 0.00 0.00 0.00 99 1012.8
20260905085821 73 160 0.0 0.0 0.00 0.00 0.00 99 1012.8
20260905085316 73 158 0.0 0.0 0.00 0.00 0.00 99 1012.8
20260905084812 73 158 0.0 0.0 0.00 0.00 0.00 99 1012.8
20260905084311 73 158 0.0 0.0 0.00 0.00 0.00 99 1013.0
20260905083806 73 158 0.0 0.0 0.00 0.00 0.00 99 1012.8
20260905083302 73 158 0.0 0.0 0.00 0.00 0.00 99 1012.7
20260905082752 73 158 0.0 0.0 0.00 0.00 0.00 99 1012.5
20260905082248 73 158 0.0 0.0 0.00 0.00 0.00 99 1012.6
20260905081747 73 158 0.0 0.0 0.00 0.00 0.00 99 1012.9
20260905081243 73 158 0.0 0.0 0.00 0.00 0.00 99 1013.0
20260905080736 73 158 0.0 0.0 0.00 0.00 0.00 99 1012.9
20260905080231 73 158 0.0 0.0 0.00 0.00 0.00 99 1012.9
20260905075730 73 158 0.0 0.0 0.00 0.00 0.00 99 1012.7
20260905075229 73 158 0.0 0.0 0.00 0.00 0.00 99 1012.8
20260905074728 74 158 0.0 0.0 0.00 0.00 0.00 99 1012.7
20260905074224 74 158 0.0 0.0 0.00 0.00 0.00 99 1012.9
20260905073720 74 158 0.0 0.0 0.00 0.00 0.00 99 1012.8